Reflectivity
3 -5 -20 11 3 11 2 19 -4 -20 -3 -3 -5 -10 -20 -20 0 -20 -20 -20 -20 -7 -20 -20 -20 8 -20 -16 -19 -0 -20 -20 -20 -20 -20 -20 -20 -20 -20 -20 -20 -20 -20 -20 -20 -20 -20
3 -20 -20 12 10 9 8 9 1 25 20 28 22 -18 -12 -20 -20 -20 -20 26 27 -12 -20 -20 -20 -20 -20 -20 -9 34 13 -20 -20 -20 -20 -20 -20 -20 -20 -20 -20 -20 -20 -20 -20 -20 -20
3 -20 -19 -4 16 16 -19 12 16 23 25 -14 -12 21 -19 -19 -20 -20 -20 -8 19 24 -20 -20 -20 -20 9 3 11 25 25 -20 -20 -20 -20 -20 -20 -20 -20 -20 -20 -20 -20 -20 -20 -20 -20
-1 -20 -20 -15 -14 -20 -15 3 3 21 7 -6 14 -20 -20 -20 -20 -6 -13 10 10 -14 2 -20 -20 -20 7 7 15 23 15 -19 -20 -20 -20 -20 -20 -20 -20 -20 -20 -20 -20 -20 -20 -20 -20
-20 -20 5 -20 8 5 6 9 -5 -0 10 16 26 4 -20 -20 -20 -20 -13 -20 -20 -20 -20 -20 -20 -20 -2 19 -18 20 34 -20 -20 -20 -20 -20 -20 -20 -20 -20 -20 -20 -20 -20 -20 -20 -20
-19 -20 -20 -20 -12 16 11 -3 1 6 7 -2 -20 -20 -20 -20 -20 -20 -20 -20 -20 -20 -20 -20 9 2 22 33 17 -9 -1 2 -8 -20 -20 -20 -20 -20 -20 -20 -20 -20 -20 -20 -20 -20 -20
12 -20 -20 -20 -20 -15 -20 23 -19 -2 -2 -20 -20 -20 -20 -20 -20 -20 -20 -20 17 -19 7 19 14 27 28 20 -6 26 -12 -13 16 -20 -20 -20 -20 -20 -20 -20 -20 -20 -20 -20 -20 -20 -20
12 10 -20 -20 -20 -20 -20 13 -2 -20 -20 -20 -20 -20 -20 -20 -20 -20 -20 -20 -7 -15 19 5 14 26 26 31 35 -16 -17 2 -6 -17 -20 -20 -20 -20 -20 -20 -20 -20 -20 -20 -20 -20 -20
17 7 -9 -17 -18 -8 12 -3 1 17 -20 -20 -20 -20 -20 -20 -20 -20 -20 -20 -20 -14 20 24 21 24 25 21 21 -0 1 -3 -20 -20 -20 -20 -20 -20 -20 -20 -20 -20 -20 -20 -20 -20 -20
13 -1 -19 -20 -20 -20 -14 3 3 9 6 -20 -20 -20 -20 -20 -20 -20 -20 -20 -20 -9 -20 24 18 25 10 -0 25 24 3 -20 -20 -20 -20 -20 -20 -20 -20 -20 -20 -20 -20 -20 -20 -20 -20
14 15 -20 -20 -20 -20 -12 9 -20 -16 8 -20 -20 -20 -20 -20 -20 -20 -20 -20 -20 -20 -20 20 27 23 10 -19 -16 -17 -13 -7 -18 -19 -20 -20 -20 -20 -20 -20 -20 -20 -20 -20 -20 -20 -20
12 13 -2 -20 -20 -20 -20 1 6 -20 -20 -20 -20 -20 -20 -20 -20 -20 -20 -20 -20 -20 10 22 21 25 2 -20 -20 -20 -20 -20 -20 -20 -20 -20 -20 -20 -20 -20 -20 -20 -20 -20 -20 -20 -20
14 7 14 -17 -20 -20 -20 -20 -9 -20 -20 -20 -20 -20 -20 -20 -20 -20 -20 -20 -20 -16 20 27 17 7 -2 7 9 9 -12 -20 -20 -20 -20 -20 -20 -20 -20 -20 -20 -20 -20 -20 -20 -20 -20
4 13 11 8 -20 -20 -20 -20 -20 -20 -20 -20 -20 -20 -20 -20 -20 -20 -20 -20 -19 3 10 -1 -7 15 8 -19 -20 -20 -20 -20 -20 -20 -20 -20 -20 -20 -20 -20 -20 -20 -20 -20 -20 -20 -20
11 5 -5 -13 -20 -20 -20 -20 -20 -20 -20 -20 -20 -20 -20 -20 -20 -9 -20 -20 -20 -20 -20 -20 -20 -17 -20 -20 -20 -20 -20 -20 -20 -20 -20 -20 -20 -20 -20 -16 -20 -20 -20 -20 -20 -20 -20
-20 10 4 -20 -20 -20 -20 -20 -20 -20 -20 -20 -20 -20 -20 -20 -20 -20 -20 -20 -20 -12 -19 -20 -20 -20 -20 -20 -20 -20 -20 -20 -20 -20 -20 -20 -20 -20 -20 -20 -16 -4 -20 -18 -20 -20 -20
-20 -20 -20 -20 -20 -20 -20 -20 -20 -20 -20 -20 -20 -20 -20 -20 -20 -20 -20 -20 -20 -20 -20 -20 -20 -20 -20 -20 -20 -20 -20 -20 -20 -20 -20 -20 -20 -20 -20 -20 -20 -20 -20 -20 -20 -20 -20
-20 -20 -20 -20 -20 -20 -20 -20 -20 -20 -20 -20 -20 -20 -20 -20 -20 -20 -20 -20 -20 -20 -20 -20 -20 -20 -20 -20 -20 -20 -20 -20 -20 -20 -20 -20 -20 -20 -20 -20 -20 -20 -20 -20 -20 -20 -20
-20 -20 -20 -20 -20 -20 -20 -20 -20 -20 -20 -20 -20 -20 -20 -20 -20 -20 -20 -20 -20 -20 -20 -20 -20 -20 -20 -20 -20 -20 -20 -20 -20 -20 -20 -20 -20 -20 -20 -20 -20 -20 -20 -20 -20 -20 -20
-20 -20 -20 -20 -20 -20 -20 -20 -20 -20 -20 -20 -20 -20 -20 -20 -20 -20 -20 -20 -20 -20 -20 -20 -20 -20 -20 -20 -20 -20 -20 -20 -20 -20 -20 -20 -20 -20 -20 -20 -20 -20 -20 -20 -20 -20 -20
-20 -20 -20 -20 -20 -20 -20 -20 -20 -20 -20 -20 -20 -20 -20 -20 -20 -20 -20 -20 -20 -20 -20 -20 -20 -20 -20 -20 -20 -20 -20 -20 -20 -20 -20 -20 -20 -20 -20 -20 -20 -20 -20 -20 -20 -20 -20
-20 -20 -20 -20 -20 -20 -20 -20 -20 -20 -20 -20 -20 -20 -20 -20 -20 -20 -20 -20 -20 -20 -20 -20 -20 -20 -20 -20 -20 -20 -20 -20 -20 -20 -20 -20 -20 -20 -20 -20 -20 -20 -20 -20 -20 -20 -20
-20 -20 -20 -20 -20 -20 -20 -20 -20 -20 -20 -20 -20 -20 -20 -20 -20 -20 -20 -20 -20 -20 -20 -20 -20 -20 -20 -20 -20 -20 -20 -20 -20 -20 -20 -20 -20 -20 -20 -20 -20 -20 -20 -20 -20 -20 -20
-20 -20 -20 -20 -20 -20 -20 -20 -20 -20 -20 -20 -20 -20 -20 -20 -20 -20 -20 -20 -20 -20 -20 -20 -20 -20 -20 -20 -20 -20 -20 -20 -20 -20 -20 -20 -20 -20 -20 -20 -20 -20 -20 -20 -20 -20 -20
-20 -20 -20 -20 -20 -20 -20 -20 -20 -20 -20 -20 -20 -20 -20 -20 -20 -20 -20 -20 -20 -20 -20 -20 -20 -20 -20 -20 -20 -20 -20 -20 -20 -20 -20 -20 -20 -20 -20 -20 -20 -20 -20 -20 -20 -20 -20
-20 -20 -20 -20 -20 -20 -20 -20 -20 -20 -20 -20 -20 -20 -20 -20 -20 -20 -20 -20 -20 -20 -20 -20 -20 -20 -20 -20 -20 -20 -20 -20 -20 -20 -20 -20 -20 -20 -20 -20 -20 -20 -20 -20 -20 -20 -20
-18 -20 -20 -20 -20 -20 -20 -20 -20 -20 -20 -20 -20 -20 -20 -20 -20 -20 -20 -20 -20 -20 -20 -20 -20 -20 -20 -20 -20 -20 -20 -20 -20 -20 -20 -20 -20 -20 -20 -20 -20 -20 -20 -20 -20 -20 -20
4 6 -17 -20 -20 -20 -20 -20 -20 -20 -20 -20 -20 -20 -20 -20 -20 -20 -20 -20 -20 -20 -20 -20 -20 -20 -20 -20 -20 -20 -20 -20 -20 -20 -20 -20 -20 -20 -20 -20 -20 -20 -20 -20 -20 -20 -20
-20 12 13 -3 -20 -20 -20 -20 -20 -20 -20 -20 -20 -20 -20 -20 -20 -20 -20 -20 -20 -20 -20 -20 -20 -20 -20 -20 -20 -20 -20 -20 -20 -20 -20 -20 -20 -20 -20 -20 -20 -20 -20 -20 -20 -20 -20
Wind_Speed
21 22 23 25 25 27 29 27 23 16 19 12 7 10 8 8 8 7 5 3 7 11 8 4 4 7 1 4 2 7 14 3 1 3 4 2 2 4 7 5 4 4 3 5 6 4 1
21 22 23 24 25 25 27 29 24 18 15 10 12 13 12 9 9 10 9 6 7 8 6 5 1 2 2 5 6 8 10 3 4 1 1 5 2 2 6 5 3 4 6 6 4 2 1
20 22 23 23 24 25 26 26 25 21 20 18 14 12 11 10 10 11 14 15 8 8 7 5 2 1 1 6 6 4 8 2 2 3 5 4 3 6 4 5 2 4 4 2 1 3 0
19 21 21 21 22 23 23 24 24 21 19 19 15 13 12 11 10 10 12 13 9 7 8 6 5 1 5 4 5 8 11 7 8 6 6 7 7 6 5 2 4 3 4 3 2 3 1
18 19 20 21 22 22 22 22 21 20 20 18 13 14 13 12 11 9 11 11 9 7 7 3 6 4 4 7 4 4 4 6 7 8 7 5 6 4 3 5 6 3 2 3 1 4 1
17 16 17 18 19 19 20 20 18 18 16 15 14 13 11 11 9 6 11 13 18 9 9 7 5 3 5 2 3 5 4 5 5 4 5 6 5 4 3 5 4 4 3 1 2 3 2
15 14 13 15 17 19 21 19 18 16 15 12 14 14 10 9 10 17 10 4 5 7 10 6 8 6 6 4 8 3 2 2 4 1 4 2 7 3 6 3 3 2 4 4 1 3 2
16 13 12 12 12 14 17 18 13 14 12 10 9 13 10 10 9 5 3 5 3 3 6 15 14 9 5 2 6 5 5 2 1 4 3 6 5 3 6 6 5 5 2 2 2 2 2
16 15 14 14 14 15 16 16 15 11 10 8 7 8 8 7 8 11 7 5 4 4 6 7 6 5 5 6 6 4 6 2 3 3 4 6 4 3 5 4 3 2 3 3 1 5 3
17 16 14 14 15 15 16 16 15 12 9 10 9 9 5 4 8 1 3 1 2 2 5 8 8 7 6 8 5 3 4 2 4 6 7 6 1 5 5 3 2 4 4 4 3 5 2
15 15 15 16 16 16 15 14 13 12 10 8 8 7 2 2 5 3 4 3 5 2 8 7 4 4 6 4 3 4 2 4 4 3 6 3 3 2 3 1 2 2 3 3 3 4 5
16 16 17 17 18 17 16 15 12 10 9 7 4 3 4 3 3 2 3 2 2 7 8 3 1 4 4 1 1 3 2 2 1 8 8 4 1 2 2 3 4 2 3 2 1 3 3
15 16 17 19 19 19 17 15 13 9 7 4 4 4 3 1 2 2 3 4 5 9 1 4 4 3 6 7 7 4 2 2 3 6 5 2 2 2 1 4 3 2 5 2 4 2 6
16 16 17 19 20 20 19 17 13 11 6 4 5 2 4 2 3 3 3 4 11 5 5 1 5 7 4 4 2 1 4 2 2 5 4 5 6 4 3 2 6 2 1 4 5 1 5
15 15 16 19 21 21 20 19 15 10 4 4 6 2 2 2 4 2 3 7 5 4 6 7 5 3 2 2 3 2 4 2 3 3 5 5 1 1 3 3 4 2 2 2 2 3 4
15 15 16 18 21 21 21 20 18 11 4 8 2 2 1 4 5 3 6 6 5 2 2 4 2 1 3 4 2 3 2 1 2 3 3 4 5 5 2 3 3 2 5 2 2 3 4
15 15 16 17 21 22 22 22 21 15 4 10 2 3 1 5 3 5 5 4 3 4 3 1 4 5 3 4 6 4 2 0 3 2 2 1 3 1 5 7 9 5 3 4 3 2 2
15 15 16 17 19 21 22 22 21 17 5 5 2 5 2 4 5 3 2 0 1 2 2 2 4 6 2 2 4 4 4 2 3 6 2 3 2 4 9 5 6 6 7 6 5 4 3
14 16 15 16 17 19 22 23 23 19 8 2 3 2 1 2 4 3 1 2 2 3 3 5 3 2 1 2 3 3 3 2 3 1 3 2 2 2 7 7 4 4 6 5 3 3 7
13 15 17 16 17 18 21 22 23 22 14 3 5 3 5 4 1 1 2 2 2 1 2 3 1 3 2 0 0 4 3 3 4 1 2 3 2 6 8 4 4 4 6 7 7 3 4
10 14 16 17 18 18 21 22 24 24 20 4 4 3 4 2 3 4 3 3 2 2 3 1 1 4 2 1 1 2 3 2 2 4 1 3 3 3 6 9 5 7 8 8 11 12 8
9 10 14 17 18 19 19 21 24 26 14 6 4 3 3 2 2 3 4 3 4 3 4 3 3 4 3 3 3 1 2 3 4 2 3 1 3 4 6 7 5 8 12 15 15 16 17
8 9 11 14 16 18 19 19 22 25 11 4 2 2 4 3 2 3 2 2 2 2 2 2 1 3 3 3 2 3 4 2 4 6 5 5 2 3 6 6 8 8 10 19 10 8 21
8 8 9 12 15 16 17 17 19 21 10 2 1 2 4 2 2 3 3 2 2 1 2 2 2 1 1 3 4 1 3 5 5 5 4 2 2 2 5 6 2 7 5 7 16 12 19
7 7 8 9 12 14 15 16 17 18 19 4 2 3 2 2 3 2 3 3 2 2 2 3 1 0 2 4 4 4 3 2 3 4 5 5 3 2 1 3 11 8 4 7 8 9 17
6 7 6 7 9 12 13 14 15 16 18 3 2 1 3 3 4 0 3 3 3 2 1 3 1 2 3 2 3 0 3 3 1 1 3 2 3 4 0 3 7 6 2 2 3 8 5
6 8 6 5 7 8 11 12 13 14 16 3 1 3 3 2 4 2 2 3 3 2 2 2 2 2 3 2 1 3 4 2 2 3 4 2 2 6 4 5 11 9 4 3 1 8 2
7 5 7 4 4 6 8 11 12 12 13 5 1 3 3 1 6 1 2 2 2 2 3 3 4 3 2 1 2 3 2 4 1 4 7 9 7 5 4 4 12 7 4 8 6 2 2
6 7 6 6 4 3 6 7 10 11 12 8 2 2 2 3 5 3 3 1 3 4 4 1 4 4 5 2 1 0 2 1 4 5 2 3 9 7 12 11 6 7 6 8 3 4 3
Wind_Direction
25 21 15 17 14 11 16 17 24 53 115 137 125 101 94 87 78 69 79 145 173 149 133 119 69 127 114 72 82 334 317 133 265 337 317 64 117 143 139 118 93 73 114 75 103 75 290
28 24 19 20 20 20 22 23 32 64 87 86 89 91 87 79 75 70 66 71 128 113 116 100 40 179 268 106 322 336 291 191 246 221 329 18 264 121 102 115 82 98 97 115 108 89 291
28 28 24 23 20 24 26 30 38 58 63 70 73 81 82 77 76 78 69 65 69 96 91 89 62 167 20 83 333 12 324 305 336 291 87 10 338 76 76 88 86 94 100 351 207 166 234
32 32 25 26 25 27 31 31 37 48 59 66 59 71 75 76 78 79 83 82 81 70 62 52 33 183 69 339 305 66 325 48 38 35 75 28 38 77 71 94 59 85 57 98 230 154 250
34 36 32 30 28 31 31 36 37 43 50 66 74 72 77 74 67 69 78 72 63 54 19 6 35 18 75 336 43 329 272 97 68 36 32 29 53 86 58 85 33 12 174 167 341 213 136
40 38 34 29 19 21 30 33 35 40 50 57 64 64 67 78 65 39 101 88 65 38 354 98 66 79 12 62 38 310 287 103 83 83 37 44 57 81 44 73 190 193 153 71 178 210 210
30 37 32 25 14 6 7 23 33 41 46 58 58 58 69 74 71 87 102 53 19 22 22 48 73 66 60 37 357 311 233 65 90 272 105 30 74 117 124 98 104 95 94 123 307 119 235
6 23 30 25 11 357 354 1 31 35 54 54 59 55 77 87 58 56 87 75 52 145 54 22 32 53 77 332 100 302 17 17 267 96 110 39 90 88 91 58 67 46 74 34 76 353 269
18 24 22 23 15 8 5 9 20 40 37 51 54 85 92 71 65 47 77 70 41 88 74 16 357 7 329 342 73 347 13 18 135 92 64 100 130 111 74 43 81 76 63 53 150 330 332
18 17 16 16 15 15 8 6 16 32 51 50 75 122 110 19 53 144 65 85 357 307 85 5 16 23 341 336 60 344 346 324 28 116 100 85 325 80 92 54 63 94 14 75 5 51 295
18 10 8 6 10 12 13 10 11 24 42 54 100 128 143 157 154 77 152 214 254 143 71 355 21 332 311 37 170 340 285 346 69 92 82 256 124 103 88 141 35 121 24 1 34 5 48
14 9 4 3 4 9 13 16 13 15 39 45 53 64 90 101 51 125 180 304 43 45 55 52 148 25 92 214 21 227 306 70 95 67 59 96 145 58 46 86 58 3 45 7 65 45 3
10 12 6 3 2 4 11 22 13 18 24 52 99 26 76 45 156 162 36 28 51 62 243 13 70 117 108 105 170 198 133 68 123 86 24 175 125 119 44 122 82 56 63 18 357 352 219
9 12 9 5 3 3 5 15 19 13 38 106 147 124 351 70 86 75 58 39 62 11 58 118 162 151 93 136 348 80 142 62 10 87 135 123 336 183 176 229 168 93 134 162 211 278 269
13 9 9 5 2 3 5 6 16 15 34 113 111 2 75 168 134 83 75 51 132 198 152 178 186 125 105 179 156 232 140 106 44 49 121 125 307 139 193 157 137 168 201 121 65 284 38
13 15 10 4 358 0 4 5 7 14 122 148 86 116 297 160 126 68 67 86 64 105 72 180 234 120 123 181 140 175 126 1 108 10 64 162 97 215 173 52 280 189 148 149 111 37 288
14 10 15 7 360 354 360 5 5 10 135 151 43 50 237 123 64 50 89 83 50 338 347 330 15 119 161 185 188 135 99 243 127 173 358 23 138 193 119 207 176 180 220 207 183 177 236
9 15 11 11 3 356 355 2 6 9 107 114 103 43 186 102 53 62 54 224 251 284 301 312 38 44 75 292 69 58 115 118 121 149 183 211 127 171 210 229 164 175 192 168 129 223 224
5 10 14 10 6 359 356 358 359 5 20 139 93 194 82 35 83 342 309 48 71 22 2 14 39 40 314 69 94 110 97 140 125 165 186 197 219 58 348 348 336 213 207 197 131 86 217
6 6 11 8 9 5 359 357 357 356 356 122 85 44 337 52 137 57 36 101 59 269 320 341 7 343 311 278 162 150 136 191 167 83 112 62 255 193 191 203 141 214 210 199 154 144 221
12 5 9 9 6 8 4 357 357 357 352 98 43 202 193 326 347 11 56 346 70 28 349 221 78 39 38 329 146 116 130 122 179 161 175 139 243 236 253 258 240 232 233 222 206 211 199
6 15 9 10 8 7 7 1 359 360 358 77 109 112 349 176 293 359 42 22 34 8 25 356 74 326 7 111 155 237 12 162 199 199 193 156 277 2 282 283 256 252 239 230 236 232 245
4 5 16 12 12 8 8 9 2 5 14 86 327 14 109 276 339 96 239 186 158 170 273 186 232 347 292 200 225 222 212 226 225 167 203 161 169 36 274 331 315 293 225 216 212 203 217
354 356 11 18 13 12 11 10 11 5 34 108 337 91 87 267 114 174 184 178 211 205 235 261 203 201 217 335 306 261 285 267 245 250 170 149 133 137 268 346 321 241 198 202 203 228 217
344 352 356 15 18 16 12 12 16 11 8 66 19 47 71 202 177 190 182 207 275 216 253 237 292 201 13 344 11 3 345 323 251 235 221 163 124 279 159 247 290 300 199 186 185 274 215
330 335 350 3 18 16 13 11 11 12 11 70 37 154 93 93 277 353 163 186 196 200 309 244 38 46 52 63 55 93 253 254 269 296 21 87 119 141 29 244 245 244 211 165 97 284 213
324 317 331 343 5 17 14 11 10 10 12 60 1 33 90 93 274 52 196 189 161 134 191 280 169 50 61 71 102 207 270 170 229 216 167 131 233 210 234 277 283 248 185 144 132 244 176
320 302 305 312 347 358 11 8 6 7 8 43 255 24 92 172 276 256 207 159 29 103 148 256 33 1 56 90 155 260 186 255 278 212 182 173 157 201 173 219 274 165 85 173 220 286 215
327 317 284 297 298 340 345 11 7 1 6 11 28 320 96 151 242 318 284 207 210 195 150 232 186 177 202 109 227 162 289 284 190 268 182 239 194 185 189 217 237 213 226 223 202 216 243